Location: Unspecified
(41.1637°N, 24.2901°E)
Time: 12:59:03
(UTC+02:00)

ISS - Pass Details

Date: 03 April 2024
Orbit: 412 x 418 km, 51.6° (Epoch: 20 April)

Event Time Altitude Azimuth Distance (km) Brightness Sun altitude
Rises 19:17:08 0° 294° (WNW) 2,362 2.2 -5.8°
Reaches altitude 10° 19:19:33 10° 278° (W) 1,497 0.9 -6.2°
Maximum altitude 19:22:10 21° 227° (SW) 994 -1.4 -6.7°
Drops below altitude 10° 19:24:46 10° 176° (S) 1,494 -1.1 -7.2°
Sets 19:27:11 0° 159° (SSE) 2,355 -0.3 -7.6°
